Regional Weather Roundup
Issued by NWS

Home | Current Version | Previous Version | Text Only | Print | Product List | Glossary On
Versions: 1 2 3 4 5 6 7 8 9 10 11 12 13 14 15 16 17 18 19 20 21 22 23 24 25 26 27 28 29 30 31 32 33 34 35 36 37 38 39 40 41 42 43 44 45 46 47 48 49 50
000
ASUS43 KLMK 221410
RWRKY
KENTUCKY REGIONAL WEATHER ROUNDUP
NATIONAL WEATHER SERVICE LOUISVILLE KY
1000 AM EDT SUN OCT 22 2017

NOTE "FAIR" INDICATES FEW OR NO CLOUDS BELOW 12,000 FEET
WITH NO SIGNIFICANT WEATHER AND/OR OBSTRUCTIONS TO VISIBILITY.

KYZ001>023-026-027-061>063-070>075-221500-
WESTERN AND SOUTH CENTRAL KENTUCKY

CITY           SKY/WX    TMP DP  RH WIND       PRES   REMARKS
PADUCAH        MOSUNNY   67  62  84 SE9       30.02S
HENDERSON      CLOUDY    66  57  72 S13       30.09R
OWENSBORO      PTSUNNY   66  55  67 S15       30.12R
HOPKINSVILLE   MOSUNNY   67  56  68 SE13      30.09F
BOWLING GREEN  CLOUDY    69  58  67 S10       30.16R
GLASGOW        SUNNY     70  55  60 S8        30.18R
$$

KYZ024-025-028>034-038-045-046-053-221500-
NORTH CENTRAL KENTUCKY

CITY           SKY/WX    TMP DP  RH WIND       PRES   REMARKS
LOUISVILLE/SDF PTSUNNY   64  51  62 SE7       30.17S
LOUISVILLE/LOU MOSUNNY   64  52  64 SE10      30.18S
FORT KNOX      CLOUDY    65  51  62 SE13G21   30.15S
$$

KYZ035>037-039>044-047>052-055>060-089>105-221500-
NORTHEAST KENTUCKY

CITY           SKY/WX    TMP DP  RH WIND       PRES   REMARKS
LEXINGTON      SUNNY     64  49  57 SE12      30.23R
COVINGTON      MOSUNNY   63  52  67 S13       30.20S
FRANKFORT      SUNNY     63  49  60 S9G18     30.21R
$$

KYZ054-064>069-076>088-106>120-221500-
SOUTHEAST KENTUCKY

CITY           SKY/WX    TMP DP  RH WIND       PRES   REMARKS
JACKSON        SUNNY     61  48  62 E3        30.28S
LONDON         SUNNY     60  50  69 SE5       30.26R
SOMERSET       SUNNY     57  50  77 CALM      30.26S
MIDDLESBORO    SUNNY     53  51  92 CALM      30.29S
MONTICELLO     SUNNY     64  52  64 VRB5      30.25S
$$





USA.gov is the U.S. government's official web portal to all federal, state and local government web resources and services.